Location: Newark
(26.0814°N, 97.8289°W)
Time: 11:37:41
(UTC+00:00)

LightSail 2 - Pass Details

Date: 28 January 2020
Orbit: 699 x 722 km, 24.0° (Epoch: 22 February)

Event Time Altitude Azimuth Distance (km) Brightness Sun altitude
Rises 03:05:15 0° 260° (W) 3,083 9.3 -39.1°
Reaches altitude 10° 03:08:44 10° 237° (WSW) 2,169 8.2 -39.9°
Enters shadow 03:09:13 11° 232° (SW) 2,082 8.0 -40.0°
